[Date Prev][Date Next][Thread Prev][Thread Next] - [Date Index][Thread Index][Author Index]

2 Line ISS Keps 7-12



ISS
1 25544U 98067A   04194.44269339  .00005153  00000-0  47439-4 0  1984
2 25544  51.6302 196.9154 0006178 356.8330 152.1012 15.69649268322289
----
Via the sarex mailing list at AMSAT.ORG courtesy of AMSAT-NA.
To unsubscribe, send "unsubscribe sarex" to Majordomo@amsat.org



AMSAT Top AMSAT Home